GW4041 Weather Reports


time (UTC)temp
C
wind
direction
speed
KPH
gust
KPH
rain 1hr
cm
rain 24hr
cm
rain mn
cm
humidity
%
barometer
mb
20260506231757 17 346 0.0 3.2 0.00 0.28 0.28 92 1007.4
20260506231255 18 328 0.0 1.6 0.00 0.28 0.28 92 1007.4
20260506230752 18 343 0.0 1.6 0.00 0.28 0.28 91 1007.3
20260506230248 18 62 1.6 3.2 0.00 0.28 0.28 91 1007.2
20260506225745 18 328 0.0 0.0 0.00 0.28 0.28 91 1007.2
20260506225242 18 354 0.0 1.6 0.00 0.28 0.28 89 1007.0
20260506224738 18 308 0.0 1.6 0.00 0.28 0.28 89 1006.9
20260506224236 18 40 0.0 1.6 0.00 0.28 0.28 91 1007.1
20260506223732 18 15 0.0 1.6 0.00 0.28 0.28 91 1007.2
20260506223227 18 90 1.6 3.2 0.00 0.28 0.28 89 1007.2
20260506222725 18 244 0.0 1.6 0.00 0.28 0.28 91 1007.3
20260506222220 18 9 0.0 0.0 0.00 0.28 0.28 90 1007.3
20260506221718 18 340 0.0 1.6 0.00 0.28 0.28 91 1007.5
20260506221216 18 19 0.0 0.0 0.00 0.28 0.28 92 1007.6
20260506220713 17 306 1.6 1.6 0.00 0.28 0.28 92 1007.1
20260506220208 18 325 0.0 1.6 0.00 0.28 0.28 93 1007.1
20260506215705 17 44 0.0 1.6 0.00 0.28 0.28 93 1007.0
20260506215200 17 332 0.0 0.0 0.00 0.28 0.28 92 1007.2
20260506214652 17 338 0.0 0.0 0.00 0.28 0.28 93 1007.0
20260506214149 17 342 1.6 3.2 0.00 0.28 0.28 92 1006.7
20260506213648 17 320 0.0 1.6 0.00 0.28 0.28 92 1007.1
20260506213144 17 15 1.6 3.2 0.00 0.28 0.28 93 1007.0
20260506212641 17 323 0.0 1.6 0.00 0.28 0.28 94 1007.0
20260506212136 17 262 1.6 3.2 0.00 0.28 0.28 92 1006.9
20260506211632 17 342 0.0 0.0 0.00 0.28 0.28 93 1006.9
20260506211129 17 329 0.0 0.0 0.00 0.28 0.28 93 1006.9
20260506210626 17 9 0.0 1.6 0.00 0.28 0.28 94 1006.9
20260506210122 17 326 0.0 1.6 0.00 0.28 0.28 94 1006.9
20260506205619 17 31 0.0 3.2 0.00 0.28 0.28 94 1006.8
20260506205114 17 298 1.6 1.6 0.00 0.28 0.28 94 1006.9
20260506204613 17 5 1.6 8.0 0.00 0.28 0.28 94 1006.9
20260506204109 17 21 0.0 1.6 0.00 0.28 0.28 95 1006.9
20260506203608 17 266 1.6 1.6 0.00 0.28 0.28 95 1006.7
20260506203104 17 33 0.0 3.2 0.00 0.28 0.28 95 1006.5
20260506202602 17 29 0.0 1.6 0.00 0.28 0.28 95 1006.5
20260506202058 17 316 0.0 0.0 0.00 0.28 0.28 96 1006.7
20260506201555 17 323 0.0 1.6 0.00 0.28 0.28 97 1006.6
20260506201052 16 23 0.0 0.0 0.00 0.28 0.28 97 1006.8
20260506200548 16 163 1.6 3.2 0.00 0.28 0.28 97 1006.9
20260506200045 16 298 1.6 3.2 0.00 0.28 0.28 98 1006.8
20260506195541 16 21 0.0 0.0 0.00 0.28 0.28 98 1006.8
20260506195038 16 320 0.0 1.6 0.00 0.28 0.28 98 1006.7
20260506194535 16 95 0.0 3.2 0.00 0.28 0.28 99 1007.2
20260506194031 16 98 0.0 1.6 0.00 0.28 0.28 98 1007.1
20260506193529 16 1 0.0 3.2 0.00 0.28 0.28 99 1006.9
20260506193026 16 98 0.0 0.0 0.00 0.28 0.28 99 1007.3
20260506192523 16 341 0.0 3.2 0.00 0.28 0.28 98 1007.4
20260506192019 16 243 4.8 9.7 0.00 0.28 0.28 98 1007.5
20260506191516 16 56 0.0 4.8 0.00 0.28 0.28 98 1007.6
20260506191012 16 248 0.0 4.8 0.00 0.28 0.28 98 1007.5
20260506190509 16 77 0.0 3.2 0.00 0.28 0.28 99 1007.5
20260506190006 16 178 1.6 1.6 0.00 0.28 0.28 98 1007.5
20260506185503 16 336 0.0 0.0 0.00 0.28 0.28 99 1007.4
20260506185000 16 330 0.0 0.0 0.00 0.28 0.28 99 1007.6
20260506184457 16 228 4.8 8.0 0.00 0.28 0.28 99 1007.5
20260506183954 16 208 0.0 3.2 0.00 0.28 0.28 99 1007.4
20260506183449 16 341 0.0 4.8 0.00 0.28 0.28 99 1007.3
20260506182946 16 328 0.0 0.0 0.13 0.28 0.28 99 1007.6
20260506182444 16 336 0.0 3.2 0.13 0.28 0.28 99 1007.8
20260506181941 16 327 0.0 0.0 0.00 0.25 0.25 98 1007.8
20260506181439 16 42 0.0 1.6 0.00 0.25 0.25 98 1007.4
20260506180936 16 110 1.6 3.2 0.00 0.25 0.25 98 1007.5
20260506180432 16 249 0.0 0.0 0.00 0.25 0.25 98 1007.7
20260506175929 16 342 0.0 3.2 0.00 0.25 0.25 98 1007.8
20260506175425 16 220 1.6 4.8 0.00 0.25 0.25 97 1007.6
20260506174917 16 284 0.0 3.2 0.00 0.25 0.25 97 1008.0
20260506174414 16 331 0.0 0.0 0.00 0.25 0.25 97 1008.0
20260506173912 16 300 0.0 4.8 0.00 0.25 0.25 97 1008.0
20260506173408 16 174 1.6 3.2 0.00 0.25 0.25 97 1008.3
20260506172906 17 7 1.6 4.8 0.00 0.25 0.25 97 1008.0
20260506172402 17 320 0.0 1.6 0.00 0.25 0.25 96 1008.1
20260506171859 17 41 0.0 3.2 0.00 0.25 0.25 96 1007.8
20260506171356 17 99 1.6 8.0 0.00 0.25 0.25 96 1007.7
20260506170853 16 165 0.0 1.6 0.00 0.25 0.25 96 1007.9
20260506170349 16 130 1.6 4.8 0.00 0.25 0.25 96 1007.9
20260506165844 16 126 1.6 3.2 0.00 0.25 0.25 97 1007.8
20260506165341 16 13 3.2 8.0 0.18 0.25 0.25 97 1007.9
20260506164837 16 111 0.0 4.8 0.18 0.25 0.25 97 1007.9
20260506164334 16 167 3.2 8.0 0.00 0.23 0.23 96 1008.3
20260506163832 16 72 0.0 1.6 0.18 0.23 0.23 96 1008.5
20260506163326 16 110 1.6 3.2 0.00 0.20 0.20 96 1009.0
20260506162821 16 94 1.6 1.6 0.13 0.20 0.20 97 1008.9
20260506162319 16 72 0.0 1.6 0.13 0.20 0.20 97 1009.1
20260506161816 16 1 0.0 1.6 0.18 0.18 0.18 97 1009.1
20260506161314 16 308 0.0 0.0 0.30 0.18 0.18 96 1009.2
20260506160812 16 335 0.0 0.0 0.30 0.15 0.15 96 1009.1
20260506160308 16 2 0.0 0.0 0.18 0.13 0.13 96 1009.2
20260506155807 16 329 0.0 0.0 0.13 0.10 0.10 96 1009.4
20260506155306 17 339 0.0 0.0 0.30 0.10 0.10 95 1009.7
20260506153415 17 18 0.0 3.2 0.18 0.03 0.03 89 1009.1
20260506152913 17 345 1.6 1.6 0.00 0.00 0.00 88 1009.2
20260506152409 17 281 0.0 1.6 0.00 0.00 0.00 86 1009.2
20260506151908 18 324 0.0 1.6 0.00 0.00 0.00 85 1009.1
20260506151404 18 282 0.0 3.2 0.00 0.00 0.00 84 1009.4
20260506150902 18 279 1.6 3.2 0.00 0.00 0.00 82 1009.2
20260506150358 18 295 0.0 8.0 0.00 0.00 0.00 82 1009.1
20260506145855 18 349 1.6 3.2 0.00 0.00 0.00 81 1009.1
20260506145351 18 178 1.6 4.8 0.00 0.00 0.00 78 1009.5
20260506144849 19 246 1.6 1.6 0.00 0.00 0.00 77 1009.4
20260506144345 19 278 4.8 4.8 0.00 0.00 0.00 75 1009.5
20260506143844 20 203 1.6 11.3 0.00 0.00 0.00 74 1009.7
20260506143340 20 341 0.0 4.8 0.00 0.00 0.00 73 1009.5
20260506142839 20 288 1.6 8.0 0.00 0.00 0.00 72 1009.3
20260506142336 20 157 1.6 3.2 0.00 0.00 0.00 74 1009.3
20260506141835 20 225 8.0 9.7 0.00 0.00 0.00 73 1009.3
20260506141332 20 119 0.0 8.0 0.00 0.00 0.00 74 1009.4
20260506140830 20 11 1.6 8.0 0.00 0.00 0.00 74 1009.3
20260506140327 20 291 1.6 3.2 0.00 0.00 0.00 74 1009.3
20260506135824 19 209 4.8 11.3 0.00 0.00 0.00 76 1009.1
20260506135320 19 355 1.6 4.8 0.00 0.00 0.00 76 1009.3
20260506134817 19 42 0.0 3.2 0.00 0.00 0.00 76 1009.3
20260506134313 19 239 1.6 4.8 0.00 0.00 0.00 76 1009.3
20260506133810 19 91 1.6 8.0 0.00 0.00 0.00 76 1009.1
20260506133307 19 97 4.8 9.7 0.00 0.00 0.00 75 1009.2
20260506132804 19 167 0.0 4.8 0.00 0.00 0.00 75 1009.6
20260506132301 19 138 1.6 3.2 0.00 0.00 0.00 75 1009.6
20260506131759 19 168 1.6 3.2 0.00 0.00 0.00 76 1009.5
20260506131254 19 342 1.6 4.8 0.00 0.00 0.00 75 1009.6
20260506130752 19 254 1.6 4.8 0.00 0.00 0.00 76 1009.6
20260506130249 19 327 0.0 3.2 0.00 0.00 0.00 76 1009.5
20260506125747 18 172 3.2 3.2 0.00 0.00 0.00 76 1009.5
20260506125244 18 7 1.6 14.5 0.00 0.00 0.00 77 1009.5
20260506124743 18 288 1.6 9.7 0.00 0.00 0.00 77 1009.4
20260506124240 18 214 1.6 4.8 0.00 0.00 0.00 77 1009.2
20260506123737 18 57 1.6 14.5 0.00 0.00 0.00 77 1009.3
20260506123236 18 158 4.8 8.0 0.00 0.00 0.00 77 1009.2
20260506122732 18 205 6.4 14.5 0.00 0.00 0.00 77 1009.2
20260506122229 18 196 3.2 8.0 0.00 0.00 0.00 79 1009.4
20260506121728 18 94 4.8 4.8 0.00 0.00 0.00 79 1009.5
20260506121224 17 20 3.2 4.8 0.00 0.00 0.00 79 1009.4
20260506120722 17 106 3.2 4.8 0.00 0.00 0.00 80 1009.7
20260506120219 17 173 0.0 3.2 0.00 0.00 0.00 81 1009.3
20260506115717 17 110 1.6 4.8 0.00 0.00 0.00 81 1009.4
20260506115215 17 124 1.6 9.7 0.00 0.00 0.00 81 1009.4
20260506114712 17 151 6.4 11.3 0.00 0.00 0.00 80 1009.4
20260506114209 17 331 3.2 14.5 0.00 0.00 0.00 80 1009.6
20260506113708 17 207 4.8 9.7 0.00 0.00 0.00 80 1009.7
20260506113205 17 67 1.6 9.7 0.00 0.00 0.00 80 1009.6
20260506112701 18 178 3.2 8.0 0.00 0.00 0.00 80 1009.7
20260506112159 18 224 3.2 8.0 0.00 0.00 0.00 80 1009.5
20260506111656 18 110 3.2 8.0 0.00 0.00 0.00 79 1009.4
20260506111154 18 207 6.4 8.0 0.00 0.00 0.00 80 1009.7
20260506110651 17 132 1.6 9.7 0.00 0.00 0.00 82 1009.6
20260506110148 17 68 4.8 8.0 0.00 0.00 0.00 82 1009.5
20260506105645 17 76 3.2 11.3 0.00 0.00 0.00 82 1009.4
20260506105142 17 313 3.2 4.8 0.00 0.00 0.00 82 1009.7
20260506104640 17 92 11.3 16.1 0.00 0.00 0.00 82 1009.7
20260506104137 17 148 3.2 3.2 0.00 0.00 0.00 83 1009.5
20260506103634 16 146 4.8 8.0 0.00 0.00 0.00 85 1009.3
20260506103131 16 212 1.6 3.2 0.00 0.00 0.00 85 1009.4
20260506102629 16 161 3.2 11.3 0.00 0.00 0.00 85 1009.3
20260506102126 16 95 4.8 12.9 0.00 0.00 0.00 85 1009.4
20260506101623 16 119 1.6 9.7 0.00 0.00 0.00 85 1009.4
20260506101120 16 210 1.6 8.0 0.00 0.00 0.00 85 1009.2
20260506100619 16 170 1.6 4.8 0.00 0.00 0.00 85 1009.6
20260506100116 16 249 1.6 8.0 0.00 0.00 0.00 85 1009.4
20260506095615 16 134 1.6 8.0 0.00 0.00 0.00 84 1009.3
20260506095111 17 69 1.6 4.8 0.00 0.00 0.00 85 1009.1
20260506094608 16 113 4.8 14.5 0.00 0.00 0.00 85 1009.3
20260506094106 16 201 1.6 8.0 0.00 0.00 0.00 85 1009.2
20260506093604 16 211 3.2 8.0 0.00 0.00 0.00 85 1009.1
20260506093101 17 104 3.2 4.8 0.00 0.00 0.00 85 1009.4
20260506092559 16 169 3.2 4.8 0.00 0.00 0.00 86 1009.5
20260506092055 17 172 1.6 11.3 0.00 0.00 0.00 85 1009.2
20260506091554 16 73 1.6 8.0 0.00 0.00 0.00 85 1009.4
20260506091051 16 168 4.8 8.0 0.00 0.00 0.00 85 1009.4
20260506090549 16 99 3.2 4.8 0.00 0.00 0.00 86 1009.7
20260506090045 17 149 3.2 11.3 0.00 0.00 0.00 85 1009.6
20260506085542 17 156 4.8 4.8 0.00 0.00 0.00 85 1009.3
20260506085038 17 353 3.2 4.8 0.00 0.00 0.00 85 1009.3
20260506084535 17 183 6.4 8.0 0.00 0.00 0.00 85 1009.3
20260506084031 17 288 0.0 16.1 0.00 0.00 0.00 85 1009.7
20260506083529 17 61 1.6 3.2 0.00 0.00 0.00 85 1009.5
20260506083026 17 132 4.8 9.7 0.00 0.00 0.00 84 1009.4
20260506082523 17 28 1.6 9.7 0.00 0.00 0.00 84 1009.3
20260506082018 17 142 6.4 11.3 0.00 0.00 0.00 84 1009.5
20260506081517 17 232 3.2 8.0 0.00 0.00 0.00 84 1009.4
20260506081014 17 136 1.6 1.6 0.00 0.00 0.00 83 1009.7
20260506080511 17 38 1.6 8.0 0.00 0.00 0.00 84 1009.6
20260506073454 17 261 3.2 12.9 0.00 0.00 0.00 83 1009.5
20260506072952 17 259 1.6 8.0 0.00 0.00 0.00 83 1009.7
20260506072449 17 101 3.2 8.0 0.00 0.00 0.00 82 1009.7
20260506071947 17 210 1.6 9.7 0.00 0.00 0.00 82 1009.6
20260506071444 17 134 3.2 4.8 0.00 0.00 0.00 82 1009.6
20260506070941 17 106 8.0 11.3 0.00 0.00 0.00 82 1009.5
20260506070438 17 90 3.2 8.0 0.00 0.00 0.00 82 1009.5
20260506062416 17 94 1.6 3.2 0.00 0.00 0.00 80 1009.9
20260506061911 18 187 1.6 3.2 0.00 0.00 0.00 79 1010.0
20260506061408 17 50 3.2 3.2 0.00 0.00 0.00 79 1010.1
20260506060906 18 81 3.2 3.2 0.00 0.00 0.00 79 1010.0
20260506060404 18 236 1.6 4.8 0.00 0.00 0.00 78 1010.0
20260506051336 18 178 4.8 9.7 0.00 0.00 0.00 75 1010.4
20260506050833 18 85 1.6 3.2 0.00 0.00 0.00 75 1010.4
20260506050331 18 73 1.6 3.2 0.00 0.00 0.00 75 1010.2
20260506044821 18 66 3.2 3.2 0.00 0.00 0.00 74 1010.5
20260506044319 18 105 3.2 3.2 0.00 0.00 0.00 74 1010.4
20260506043816 18 101 1.6 3.2 0.00 0.00 0.00 74 1010.6
20260506043313 18 161 6.4 9.7 0.00 0.00 0.00 73 1010.4
20260506042812 18 122 1.6 1.6 0.00 0.00 0.00 72 1010.5
20260506042310 18 159 4.8 8.0 0.00 0.00 0.00 72 1010.5
20260506041809 18 61 1.6 3.2 0.00 0.00 0.00 72 1010.4
20260506041305 18 85 1.6 3.2 0.00 0.00 0.00 72 1010.4
20260506040802 18 17 1.6 3.2 0.00 0.00 0.00 71 1010.5
20260506040259 19 199 0.0 4.8 0.00 0.00 0.00 71 1010.3
20260506035756 18 93 1.6 3.2 0.00 0.00 0.00 71 1010.4
20260506035253 19 93 0.0 1.6 0.00 0.00 0.00 70 1010.4
20260506034750 19 303 1.6 4.8 0.00 0.00 0.00 69 1010.3
20260506034247 19 5 1.6 8.0 0.00 0.00 0.00 69 1010.1
20260506033744 19 117 1.6 3.2 0.00 0.00 0.00 70 1010.4
20260506033241 19 216 1.6 9.7 0.00 0.00 0.00 68 1010.4
20260506032738 19 0 0.0 3.2 0.00 0.00 0.00 69 1010.6
20260506032235 19 104 3.2 3.2 0.00 0.00 0.00 69 1010.4
20260506031732 19 69 4.8 8.0 0.00 0.00 0.00 68 1010.3
20260506031229 20 75 1.6 4.8 0.00 0.00 0.00 68 1010.4
20260506030727 20 230 3.2 14.5 0.00 0.00 0.00 67 1010.3
20260506030225 20 112 3.2 3.2 0.00 0.00 0.00 67 1010.3
20260506025721 20 129 3.2 4.8 0.00 0.00 0.00 68 1010.5
20260506025218 20 73 3.2 8.0 0.00 0.00 0.00 67 1010.4
20260506024715 20 111 1.6 8.0 0.00 0.00 0.00 67 1010.3
20260506024211 20 239 1.6 3.2 0.00 0.00 0.00 67 1010.6
20260506023707 20 103 6.4 11.3 0.00 0.00 0.00 66 1010.4
20260506023205 20 112 6.4 11.3 0.00 0.00 0.00 66 1010.3
20260506022656 20 249 4.8 9.7 0.00 0.00 0.00 65 1010.3
20260506022154 20 54 3.2 3.2 0.00 0.00 0.00 66 1010.5
20260506021652 20 165 3.2 9.7 0.00 0.00 0.00 65 1010.6
20260506021148 20 172 6.4 12.9 0.00 0.00 0.00 65 1010.3
20260506020645 20 84 1.6 4.8 0.00 0.00 0.00 65 1010.4
20260506020143 20 348 0.0 1.6 0.00 0.00 0.00 65 1010.4
20260506015640 20 76 3.2 8.0 0.00 0.00 0.00 64 1010.5
20260506015137 20 61 3.2 8.0 0.00 0.00 0.00 64 1010.2
20260506014635 20 181 4.8 9.7 0.00 0.00 0.00 64 1010.3
20260506014130 20 152 1.6 3.2 0.00 0.00 0.00 64 1010.3
20260506013629 21 251 3.2 4.8 0.00 0.00 0.00 63 1010.3
20260506013125 21 210 1.6 8.0 0.00 0.00 0.00 62 1010.2
20260506012621 21 223 4.8 9.7 0.00 0.00 0.00 61 1010.3
20260506012112 21 209 4.8 9.7 0.00 0.00 0.00 60 1010.2
20260506011610 21 111 4.8 9.7 0.00 0.00 0.00 59 1010.0
20260506011106 21 136 8.0 12.9 0.00 0.00 0.00 57 1010.0
20260506010605 22 203 1.6 3.2 0.00 0.00 0.00 56 1009.9
20260506005559 22 237 4.8 8.0 0.00 0.00 0.00 53 1009.7
20260506005054 22 357 1.6 8.0 0.00 0.00 0.00 52 1009.6
20260506004552 22 355 1.6 4.8 0.00 0.00 0.00 51 1009.3
20260506004048 22 244 1.6 8.0 0.00 0.00 0.00 51 1009.5
20260506003545 22 210 1.6 1.6 0.00 0.00 0.00 50 1009.4
20260506003041 23 92 1.6 4.8 0.00 0.00 0.00 49 1009.1
20260506002537 23 187 3.2 9.7 0.00 0.00 0.00 50 1009.3
20260506002033 23 210 6.4 9.7 0.00 0.00 0.00 49 1009.2
20260506001530 23 16 1.6 4.8 0.00 0.00 0.00 50 1009.1
20260506001027 23 111 1.6 3.2 0.00 0.00 0.00 49 1009.1
20260506000525 23 138 1.6 4.8 0.00 0.00 0.00 49 1009.2
20260506000022 23 92 0.0 1.6 0.00 0.00 0.00 50 1009.0
20260505235520 23 168 3.2 8.0 0.00 0.00 0.00 49 1008.8
20260505235016 23 140 1.6 4.8 0.00 0.00 0.00 49 1009.2
20260505234513 23 235 3.2 4.8 0.00 0.00 0.00 48 1009.0
20260505234010 23 334 0.0 3.2 0.00 0.00 0.00 49 1008.9
20260505233508 24 68 0.0 3.2 0.00 0.00 0.00 48 1008.8
20260505233005 24 167 1.6 12.9 0.00 0.00 0.00 48 1008.8
20260505232503 24 255 1.6 8.0 0.00 0.00 0.00 46 1008.9
20260505232000 24 60 4.8 16.1 0.00 0.00 0.00 44 1008.9